Notices

What's New in latest Release from April 7th, 2021:

- Updated Glossary, including Speed of Maximum Gust, and Total Hourly Precipitation

- Updated national and regional climate services offices contacts and prices information

- Addition of station inventory lists for 1981-2010, 1971-2000, and 1961-1990 Normals.

If you haven't already, please take our survey and provide feedback about our website: https://eccc.sondage-survey.ca/f/LanguageSelection.aspx?s=442ca660-fcf1-47c0-95a9-59707d6fd709

Hourly Data Report for January 08, 2021

SHEARWATER RCS
NOVA SCOTIA
Current Station Operator: ECCC - MSC

44°37'47.000" N
63°30'48.000" W
24.00 m
8205092
71264
AAW

Download Data

Hourly Data (January 2021)
Hourly Data Report for January 8, 2021
TIME
LST
Temp Definition
°C
Dew Point Definition
°C
Rel Hum Definition
%
Precip. Amount Definition
mm

Wind Dir Definition
10's deg

Wind Spd Definition
km/h
Visibility Definition
km
Stn Press Definition
kPa
Hmdx Definition


Wind Chill Definition


Weather Definition


00:00 0.0 -2.7 82 0.0 32 19   99.94   -5 LegendNANA
01:00 -0.3 -3.1 82 0.0 32 21   99.91   -6 LegendNANA
02:00 -0.6 -3.4 81 0.0 31 24   99.94   -7 LegendNANA
03:00 -0.8 -3.9 79 0.0 32 28   99.96   -7 LegendNANA
04:00 -1.1 -3.8 82 0.0 31 20   99.96   -7 LegendNANA
05:00 -1.3 -4.2 80 0.0 32 18   99.98   -7 LegendNANA
06:00 -1.2 -4.6 78 0.0 31 18   99.97   -6 LegendNANA
07:00 -1.2 -4.3 79 0.0 31 17   100.02   -6 LegendNANA
08:00 -1.4 -4.9 77 0.0 32 16   100.05   -6 LegendNANA
09:00 -1.5 -4.2 82 0.0 32 13   100.09   -6 LegendNANA
10:00 -1.5 -4.2 82 0.0 32 13   100.11   -6 LegendNANA
11:00 -1.3 -4.1 81 0.0 31 14   100.10   -6 LegendNANA
12:00 -1.4 -3.8 84 0.0 32 16   100.05   -6 LegendNANA
13:00 -1.2 -4.9 76 0.0 29 17   100.01   -6 LegendNANA
14:00 -2.1 -5.5 77 0.0 31 19   100.01   -8 LegendNANA
15:00 -2.3 -5.0 82 0.0 30 13   100.07   -7 LegendNANA
16:00 -2.8 -6.0 79 0.0 29 14   100.15   -8 LegendNANA
17:00 -3.3 -6.4 79 0.0 30 16   100.19   -9 LegendNANA
18:00 -3.4 -6.7 77 0.0 31 14   100.26   -8 LegendNANA
19:00 -3.2 -7.0 75 0.2 29 14   100.29   -8 LegendNANA
20:00 -3.0 -6.9 75 0.0 28 12   100.34   -7 LegendNANA
21:00 -3.0 -6.9 74 0.0 28 10   100.27   -7 LegendNANA
22:00 -3.1 -7.1 74 0.0 29 13   100.28   -8 LegendNANA
23:00 -2.9 -7.0 74 0.0 26 11   100.31   -7 LegendNANA

Notes on Data Quality.

Legend

  • E = Estimated
  • M = Missing
  • NA = Not Available*
  • [empty] = Indicates an unobserved value
Date modified: